Regional Weather Roundup
Issued by NWS

Home | Current Version | Previous Version | Graphics & Text | Print | Product List | Glossary On
Versions: 1 2 3 4 5 6 7 8 9 10 11 12 13 14 15 16 17 18 19 20 21 22 23 24 25 26 27
000
ASUS45 KBOU 201006
RWRCO

WEATHER ROUNDUP FOR COLORADO
NATIONAL WEATHER SERVICE DENVER/BOULDER CO
400 AM MDT SUN APR 20 2014

NOTE: "FAIR" INDICATES FEW OR NO CLOUDS BELOW 12000 FEET WITH NO
SIGNIFICANT WEATHER AND/OR OBSTRUCTIONS TO VISIBILITY.

COZ001>005-013-030-031-201100-
...NORTHWEST COLORADO...

CITY           SKY/WX    TMP DP  RH WIND       PRES   REMARKS
CRAIG          CLEAR     34  32  92 CALM      30.14R
HAYDEN         CLEAR     37  34  87 E7        30.16S
MEEKER         CLEAR     36  33  89 NE5       30.14S
MOUNT WERNER   PTCLDY    36  32  87 W6        30.28S
STEAMBOAT SPGS CLEAR     35  33  91 CALM      30.16R
WALDEN         CLEAR     30  28  93 SE7       30.18R WCI  23
$$

COZ006>008-011-201100-
...WEST CENTRAL VALLEYS...

CITY           SKY/WX    TMP DP  RH WIND       PRES   REMARKS
GRAND JUNCTION CLEAR     44  40  85 E3        30.08S
MONTROSE       PTCLDY    42  38  85 S6        30.15R
EAGLE          MOCLDY    39  37  93 E5        30.18R
RIFLE          CLEAR     40  35  83 CALM      30.13R
DELTA          PTCLDY    44  38  79 NE5       30.12S
NUCLA            N/A     39  36  87 SE6       30.17S
$$

COZ017>023-064>068-201100-
...SOUTHWEST COLORADO...

CITY           SKY/WX    TMP DP  RH WIND       PRES   REMARKS
DURANGO        MOCLDY    38  33  82 CALM      30.13R
CORTEZ         CLEAR     37  32  82 E6        30.13R
PAGOSA SPRINGS MOCLDY    39  33  79 CALM      30.17S
TELLURIDE      MOCLDY    37  32  81 CALM      30.22S
WOLF CREEK PAS CLOUDY    30  28  93 CALM      30.29S
$$

COZ009-010-012-014-032>034-037-058>063-201100-
...CENTRAL COLORADO...

CITY           SKY/WX    TMP DP  RH WIND       PRES   REMARKS
ASPEN          MOCLDY    38  31  76 S6        30.17R
BUENA VISTA    PTCLDY    39  35  88 W8        30.17F
COPPER MTN     FOG       34  30  86 W10       30.31S VSB<1/4 WCI  26
BERTHOUD PASS  HAZE      27  16  63 NW17      30.31S VSB<1/4 WCI  14
COTTONWOOD PAS PTCLDY    37  32  81 W6        30.23F
GUNNISON       MOCLDY    34  27  75 S3        30.21S
KREMMLING      CLEAR     32  30  93 CALM      30.19S
LEADVILLE      PTCLDY    30  28  92 CALM      30.23S
MONARCH PASS   MOCLDY    30  28  93 W7        30.39S FOG     WCI  23
SALIDA         PTCLDY    43  40  89 CALM      30.23F
SUNLIGHT       CLEAR     36  32  87 CALM      30.30R
WILKERSON PASS PTCLDY    32  30  93 W3        30.28F
$$

COZ069>075-201100-
...SAN LUIS VALLEY/SANGRE DE CRISTO MOUNTAINS...

CITY           SKY/WX    TMP DP  RH WIND       PRES   REMARKS
ALAMOSA        CLOUDY    46  38  73 SE7       30.14S
LA VETA PASS   CLOUDY    34  32  93 SW7       30.21F WCI  28
SAGUACHE       CLOUDY    45  36  70 NW14      30.15S
$$

COZ035-036-038>040-201100-
...NORTHERN COLORADO FRONT RANGE...

CITY           SKY/WX    TMP DP  RH WIND       PRES   REMARKS
DENVER INTL AP MOCLDY    48  41  76 SW14      30.03F
DMNS CITY PARK   N/A     49  40  70 SE3       30.03S
AURORA         MOCLDY    43  41  93 S8        30.04F
FRONT RANGE AP NOT AVBL
ERIE MUNI ARPT PTCLDY    45  42  90 CALM      30.02S
BOULDER MUN AP PTCLDY    48  41  76 NW5       30.02F
CENTENNIAL     PTCLDY    47  38  71 SW9       30.05F
BROOMFIELD     PTCLDY    45  41  87 W6        30.03F
FORT COLLINS   PTCLDY    43  37  81 N6        30.05S
LONGMONT       PTCLDY    42  41  94 CALM      30.04F
$$

COZ041-046-047-076>085-087-088-201100-
...PIKES PEAK/PALMER DIVIDE AND SOUTHERN FOOTHILLS...

CITY           SKY/WX    TMP DP  RH WIND       PRES   REMARKS
COLO. SPRINGS  MOCLDY    50  35  56 N9        30.06F
A. F. ACADEMY  MOCLDY    42  36  81 N2        30.08F
ELLICOTT       NOT AVBL
FALCON         MOCLDY    45  34  63 NW9       30.10S
FORT CARSON    CLOUDY    47  37  67 NW7       30.05S
LIMON          MOCLDY    41  39  93 W3        30.03F
MONUMENT HILL  MOCLDY    39  34  81 SW7       30.09F
TRINIDAD       LGT RAIN  50  44  80 W9        30.05S
$$

COZ042>045-048>051-090-091-201100-
...NORTHEAST COLORADO...

CITY           SKY/WX    TMP DP  RH WIND       PRES   REMARKS
GREELEY ARPT   PTCLDY    43  36  75 N7        30.03F
AKRON          PTCLDY    42  37  82 W9        30.01F
BURLINGTON     MOCLDY    47  44  90 NE8       29.99F
WRAY           PTCLDY    42  41  94 SW5       30.01S
STERLING       PTCLDY    37  36  93 W5        30.01S
HOLYOKE        PTCLDY    41  36  81 CALM      30.00F
FORT MORGAN    PTCLDY    45  42  89 NW6       30.02F
$$

COZ086-089-092>099-201100-
...SOUTHEAST COLORADO...

CITY           SKY/WX    TMP DP  RH WIND       PRES   REMARKS
PUEBLO         CLOUDY    54  43  66 W9        30.01F
LA JUNTA       MOCLDY    55  42  61 NW14      29.97S
LAMAR          MOCLDY    50  41  71 SW6       29.91S
SPRINGFIELD      N/A     53  47  79 S18G25    29.98R
$$



USA.gov is the U.S. government's official web portal to all federal, state and local government web resources and services.